EZY11BM LGAV-LICC

Flight info

Callsign EZY11BM
Flight time 1h 32m
Altitude 40000
Route KOR N604 RILIN/N0459F400 UN604 RUTOM/N0458F390 DCT SODMO/N0402F190 Q72 PIMOR
Aircraft B736/M-SDE2E3FGHIRWXY/LB1

Departure

Time 2026-05-07 15:19
Airport Athens Eleftherios Venizelos International Airport (LGAV)

Arrival

Time 2026-05-07 16:52
Airport Catania-Fontanarossa Airport (LICC)
Time Latitude Longitude Altitude Speed Heading
2026-05-07 14:53 37.93169 23.94320 300 ft 0 kts 217°
2026-05-07 15:08 37.93171 23.94321 300 ft 2 kts 217°
2026-05-07 15:08 37.93184 23.94334 302 ft 2 kts 217°
2026-05-07 15:08 37.93197 23.94346 301 ft 2 kts 217°
2026-05-07 15:09 37.93211 23.94359 301 ft 2 kts 216°
2026-05-07 15:09 37.93225 23.94369 301 ft 2 kts 179°
2026-05-07 15:09 37.93238 23.94363 298 ft 1 kts 135°
2026-05-07 15:09 37.93240 23.94361 301 ft 0 kts 132°
2026-05-07 15:12 37.93239 23.94362 298 ft 1 kts 133°
2026-05-07 15:13 37.93234 23.94370 301 ft 3 kts 127°
2026-05-07 15:13 37.93223 23.94389 301 ft 5 kts 126°
2026-05-07 15:13 37.93192 23.94441 301 ft 10 kts 127°
2026-05-07 15:13 37.93141 23.94526 300 ft 14 kts 128°
2026-05-07 15:14 37.93083 23.94625 300 ft 14 kts 126°
2026-05-07 15:14 37.93072 23.94732 302 ft 13 kts 50°
2026-05-07 15:14 37.93149 23.94806 300 ft 14 kts 37°
2026-05-07 15:14 37.93225 23.94878 301 ft 13 kts 38°
2026-05-07 15:15 37.93305 23.94955 298 ft 16 kts 36°
2026-05-07 15:15 37.93401 23.95045 301 ft 19 kts 36°
2026-05-07 15:15 37.93512 23.95150 299 ft 21 kts 37°
2026-05-07 15:15 37.93638 23.95269 297 ft 24 kts 36°
2026-05-07 15:16 37.93773 23.95398 298 ft 26 kts 37°
2026-05-07 15:16 37.93921 23.95539 297 ft 27 kts 36°
2026-05-07 15:16 37.94076 23.95685 299 ft 27 kts 36°
2026-05-07 15:16 37.94223 23.95824 298 ft 25 kts 38°
2026-05-07 15:17 37.94328 23.95927 297 ft 0 kts 49°
2026-05-07 15:17 37.94330 23.95931 297 ft 0 kts 51°
2026-05-07 15:18 37.94332 23.95936 297 ft 0 kts 68°
2026-05-07 15:18 37.94334 23.95958 296 ft 11 kts 88°
2026-05-07 15:18 37.94295 23.96017 293 ft 9 kts 178°
2026-05-07 15:18 37.94122 23.95973 282 ft 43 kts 199°
2026-05-07 15:19 37.93688 23.95594 281 ft 120 kts 215°
2026-05-07 15:19 37.92868 23.94838 769 ft 156 kts 218°
2026-05-07 15:19 37.92064 23.94051 2075 ft 140 kts 210°
2026-05-07 15:19 37.91177 23.93554 2996 ft 146 kts 205°
2026-05-07 15:20 37.90154 23.92891 3434 ft 184 kts 210°
2026-05-07 15:20 37.89206 23.91606 3775 ft 220 kts 243°
2026-05-07 15:20 37.88971 23.89614 4319 ft 240 kts 277°
2026-05-07 15:20 37.89530 23.87596 5172 ft 244 kts 294°
2026-05-07 15:21 37.90259 23.85638 6004 ft 247 kts 295°
2026-05-07 15:21 37.90898 23.83611 6777 ft 250 kts 279°
2026-05-07 15:21 37.90949 23.81423 7612 ft 249 kts 269°
2026-05-07 15:21 37.90932 23.79201 8350 ft 257 kts 270°
2026-05-07 15:22 37.90946 23.76845 8871 ft 275 kts 271°
2026-05-07 15:22 37.90987 23.74382 9885 ft 280 kts 272°
2026-05-07 15:22 37.91056 23.71893 10843 ft 288 kts 272°
2026-05-07 15:22 37.91152 23.69237 11184 ft 317 kts 273°
2026-05-07 15:23 37.91275 23.66360 11407 ft 345 kts 273°
2026-05-07 15:23 37.91426 23.63214 11682 ft 368 kts 274°
2026-05-07 15:23 37.91595 23.59945 12396 ft 374 kts 274°
2026-05-07 15:23 37.91772 23.56652 13318 ft 375 kts 274°
2026-05-07 15:24 37.91952 23.53361 14177 ft 376 kts 274°
2026-05-07 15:24 37.92136 23.50044 14906 ft 379 kts 274°
2026-05-07 15:24 37.92321 23.46706 15622 ft 382 kts 274°
2026-05-07 15:24 37.92508 23.43338 16355 ft 384 kts 274°
2026-05-07 15:25 37.92695 23.39956 17046 ft 386 kts 274°
2026-05-07 15:25 37.92882 23.36547 17703 ft 389 kts 274°
2026-05-07 15:25 37.93069 23.33111 18346 ft 393 kts 274°
2026-05-07 15:25 37.93258 23.29650 18884 ft 396 kts 274°
2026-05-07 15:26 37.93447 23.26152 19395 ft 399 kts 274°
2026-05-07 15:26 37.93636 23.22625 19910 ft 403 kts 274°
2026-05-07 15:26 37.93826 23.19071 20413 ft 406 kts 274°
2026-05-07 15:26 37.94017 23.15485 20917 ft 410 kts 274°
2026-05-07 15:27 37.94143 23.13093 21251 ft 412 kts 274°
2026-05-07 15:27 37.94334 23.09459 21738 ft 415 kts 274°
2026-05-07 15:27 37.94589 23.04591 22360 ft 420 kts 274°
2026-05-07 15:27 37.94780 23.00889 22805 ft 423 kts 274°
2026-05-07 15:28 37.94973 22.97153 23244 ft 426 kts 275°
2026-05-07 15:28 37.95103 22.94615 23522 ft 429 kts 275°
2026-05-07 15:28 37.95297 22.90822 23891 ft 432 kts 275°
2026-05-07 15:28 37.95488 22.87049 24082 ft 428 kts 274°
2026-05-07 15:29 37.95675 22.83334 24093 ft 428 kts 274°
2026-05-07 15:29 37.95863 22.79575 24103 ft 428 kts 274°
2026-05-07 15:29 37.96050 22.75812 24106 ft 428 kts 274°
2026-05-07 15:29 37.96236 22.72055 24100 ft 427 kts 274°
2026-05-07 15:30 37.96420 22.68308 24104 ft 426 kts 275°
2026-05-07 15:30 37.96730 22.64904 24130 ft 430 kts 281°
2026-05-07 15:30 37.97333 22.61156 24275 ft 437 kts 282°
2026-05-07 15:30 37.97964 22.57362 24506 ft 441 kts 282°
2026-05-07 15:31 37.98596 22.53555 24805 ft 442 kts 282°
2026-05-07 15:31 37.99226 22.49731 25167 ft 443 kts 282°
2026-05-07 15:31 37.99849 22.45905 25494 ft 443 kts 282°
2026-05-07 15:31 38.00467 22.42078 25814 ft 443 kts 282°
2026-05-07 15:32 38.01081 22.38249 26171 ft 442 kts 282°
2026-05-07 15:32 38.01688 22.34443 26624 ft 439 kts 282°
2026-05-07 15:32 38.02282 22.30714 27175 ft 433 kts 282°
2026-05-07 15:32 38.02873 22.26992 27776 ft 429 kts 282°
2026-05-07 15:33 38.03459 22.23300 28384 ft 424 kts 282°
2026-05-07 15:33 38.04034 22.19664 29118 ft 417 kts 282°
2026-05-07 15:33 38.04602 22.16067 29726 ft 415 kts 282°
2026-05-07 15:33 38.05166 22.12491 30350 ft 411 kts 282°
2026-05-07 15:34 38.05719 22.08967 31039 ft 403 kts 283°
2026-05-07 15:34 38.06260 22.05521 31816 ft 394 kts 283°
2026-05-07 15:34 38.06789 22.02142 32545 ft 387 kts 283°
2026-05-07 15:34 38.07308 21.98817 33115 ft 382 kts 283°
2026-05-07 15:35 38.07823 21.95523 33669 ft 378 kts 283°
2026-05-07 15:35 38.08330 21.92269 34196 ft 374 kts 283°
2026-05-07 15:35 38.08833 21.89041 34560 ft 373 kts 283°
2026-05-07 15:35 38.09338 21.85796 34852 ft 373 kts 283°
2026-05-07 15:36 38.09829 21.82625 35259 ft 370 kts 284°
2026-05-07 15:36 38.10324 21.79424 35680 ft 367 kts 284°
2026-05-07 15:36 38.10814 21.76245 36041 ft 366 kts 284°
2026-05-07 15:36 38.11302 21.73076 36368 ft 365 kts 284°
2026-05-07 15:37 38.11787 21.69920 36714 ft 363 kts 284°
2026-05-07 15:37 38.12269 21.66779 37065 ft 361 kts 284°
2026-05-07 15:37 38.12749 21.63647 37357 ft 361 kts 284°
2026-05-07 15:37 38.13227 21.60525 37651 ft 360 kts 284°
2026-05-07 15:38 38.13702 21.57411 37964 ft 358 kts 284°
2026-05-07 15:38 38.14174 21.54309 38305 ft 356 kts 284°
2026-05-07 15:38 38.14644 21.51219 38616 ft 355 kts 285°
2026-05-07 15:38 38.15112 21.48142 38869 ft 354 kts 285°
2026-05-07 15:39 38.15579 21.45058 38986 ft 357 kts 284°
2026-05-07 15:39 38.16046 21.41954 39069 ft 360 kts 284°
2026-05-07 15:39 38.16918 21.35644 39213 ft 364 kts 283°
2026-05-07 15:40 38.17768 21.29313 39414 ft 367 kts 283°
2026-05-07 15:40 38.18198 21.26116 39521 ft 368 kts 283°
2026-05-07 15:40 38.18630 21.22905 39609 ft 369 kts 283°
2026-05-07 15:41 38.19063 21.19687 39722 ft 370 kts 283°
2026-05-07 15:41 38.19497 21.16460 39822 ft 371 kts 283°
2026-05-07 15:41 38.20365 21.09988 40030 ft 371 kts 283°
2026-05-07 15:42 38.21236 21.03477 40074 ft 375 kts 283°
2026-05-07 15:42 38.22106 20.96945 40078 ft 374 kts 283°
2026-05-07 15:43 38.22971 20.90414 40087 ft 374 kts 282°
2026-05-07 15:43 38.23828 20.83925 40078 ft 374 kts 282°
2026-05-07 15:44 38.24686 20.77396 40077 ft 374 kts 282°
2026-05-07 15:44 38.25540 20.70870 40080 ft 374 kts 282°
2026-05-07 15:45 38.26391 20.64335 40071 ft 374 kts 282°
2026-05-07 15:45 38.27238 20.57802 40074 ft 374 kts 282°
2026-05-07 15:46 38.28497 20.48044 40087 ft 374 kts 282°
2026-05-07 15:47 38.29336 20.41496 40084 ft 374 kts 282°
2026-05-07 15:47 38.30171 20.34955 40067 ft 374 kts 282°
2026-05-07 15:48 38.31004 20.28408 40062 ft 374 kts 281°
2026-05-07 15:48 38.31896 20.21888 40067 ft 373 kts 283°
2026-05-07 15:49 38.33003 20.15419 40064 ft 373 kts 284°
2026-05-07 15:49 38.34124 20.08961 40058 ft 374 kts 284°
2026-05-07 15:50 38.35223 20.02482 40073 ft 374 kts 283°
2026-05-07 15:50 38.36307 19.96001 40069 ft 374 kts 283°
2026-05-07 15:51 38.37378 19.89548 40055 ft 375 kts 283°
2026-05-07 15:51 38.38453 19.83045 40056 ft 375 kts 283°
2026-05-07 15:52 38.39524 19.76539 40053 ft 375 kts 283°
2026-05-07 15:52 38.40592 19.70027 40056 ft 376 kts 283°
2026-05-07 15:53 38.41659 19.63501 40048 ft 376 kts 283°
2026-05-07 15:53 38.42722 19.56971 40053 ft 376 kts 283°
2026-05-07 15:54 38.43785 19.50424 40052 ft 376 kts 283°
2026-05-07 15:54 38.44836 19.43920 40049 ft 377 kts 282°
2026-05-07 15:55 38.45891 19.37369 40043 ft 377 kts 282°
2026-05-07 15:55 38.46939 19.30839 40046 ft 375 kts 282°
2026-05-07 15:56 38.47984 19.24299 40054 ft 377 kts 282°
2026-05-07 15:56 38.49033 19.17712 40041 ft 379 kts 282°
2026-05-07 15:57 38.50079 19.11119 40032 ft 375 kts 282°
2026-05-07 15:57 38.50586 19.07911 40017 ft 361 kts 282°
2026-05-07 15:57 38.51037 19.04818 39820 ft 350 kts 276°
2026-05-07 15:57 38.50959 19.01716 39300 ft 352 kts 266°
2026-05-07 15:58 38.50449 18.98663 39189 ft 353 kts 260°
2026-05-07 15:58 38.49596 18.95742 39060 ft 359 kts 249°
2026-05-07 15:58 38.48283 18.93062 39047 ft 350 kts 245°
2026-05-07 15:58 38.46942 18.90536 39016 ft 336 kts 245°
2026-05-07 15:59 38.45640 18.88124 39014 ft 322 kts 245°
2026-05-07 15:59 38.44400 18.85826 39006 ft 309 kts 246°
2026-05-07 15:59 38.43199 18.83580 38590 ft 308 kts 246°
2026-05-07 15:59 38.41973 18.81241 37223 ft 329 kts 246°
2026-05-07 16:00 38.40656 18.78709 35917 ft 351 kts 244°
2026-05-07 16:00 38.39316 18.76178 35750 ft 342 kts 244°
2026-05-07 16:00 38.37985 18.73668 35504 ft 348 kts 244°
2026-05-07 16:00 38.36620 18.71083 35133 ft 356 kts 244°
2026-05-07 16:01 38.35225 18.68446 34786 ft 359 kts 244°
2026-05-07 16:01 38.33829 18.65816 34426 ft 356 kts 244°
2026-05-07 16:01 38.32441 18.63209 34080 ft 352 kts 243°
2026-05-07 16:01 38.31074 18.60637 33695 ft 349 kts 243°
2026-05-07 16:02 38.29718 18.58089 33328 ft 346 kts 243°
2026-05-07 16:02 38.28378 18.55569 32983 ft 342 kts 243°
2026-05-07 16:02 38.27049 18.53070 32643 ft 339 kts 243°
2026-05-07 16:02 38.25735 18.50598 32310 ft 336 kts 243°
2026-05-07 16:03 38.24431 18.48147 31983 ft 333 kts 243°
2026-05-07 16:03 38.23155 18.45750 31668 ft 331 kts 243°
2026-05-07 16:03 38.21867 18.43332 31346 ft 329 kts 243°
2026-05-07 16:03 38.20585 18.40925 31024 ft 327 kts 243°
2026-05-07 16:04 38.19310 18.38536 30716 ft 326 kts 243°
2026-05-07 16:04 38.18042 18.36159 30390 ft 325 kts 243°
2026-05-07 16:04 38.16774 18.33785 30072 ft 324 kts 243°
2026-05-07 16:04 38.15511 18.31422 29699 ft 323 kts 243°
2026-05-07 16:05 38.14250 18.29066 29357 ft 321 kts 243°
2026-05-07 16:05 38.12998 18.26729 29028 ft 320 kts 243°
2026-05-07 16:05 38.11746 18.24391 28713 ft 320 kts 242°
2026-05-07 16:05 38.10494 18.22057 28405 ft 319 kts 242°
2026-05-07 16:06 38.09243 18.19724 28085 ft 320 kts 242°
2026-05-07 16:06 38.08008 18.17422 27782 ft 320 kts 242°
2026-05-07 16:06 38.06754 18.15090 27462 ft 320 kts 242°
2026-05-07 16:06 38.05500 18.12757 27150 ft 320 kts 242°
2026-05-07 16:07 38.04243 18.10421 26836 ft 321 kts 242°
2026-05-07 16:07 38.02985 18.08084 26520 ft 321 kts 241°
2026-05-07 16:07 38.01724 18.05746 26207 ft 321 kts 241°
2026-05-07 16:07 38.00466 18.03413 25893 ft 320 kts 241°
2026-05-07 16:08 37.99205 18.01076 25579 ft 320 kts 241°
2026-05-07 16:08 37.97946 17.98747 25268 ft 320 kts 240°
2026-05-07 16:08 37.96688 17.96418 24954 ft 320 kts 240°
2026-05-07 16:08 37.95428 17.94090 24644 ft 319 kts 240°
2026-05-07 16:09 37.94171 17.91767 24325 ft 319 kts 240°
2026-05-07 16:09 37.92914 17.89446 24010 ft 319 kts 240°
2026-05-07 16:09 37.91657 17.87128 23687 ft 319 kts 239°
2026-05-07 16:09 37.90416 17.84840 23341 ft 319 kts 239°
2026-05-07 16:10 37.89166 17.82537 22995 ft 316 kts 239°
2026-05-07 16:10 37.87923 17.80248 22676 ft 314 kts 239°
2026-05-07 16:10 37.86689 17.77979 22352 ft 311 kts 239°
2026-05-07 16:10 37.85470 17.75739 22060 ft 306 kts 239°
2026-05-07 16:11 37.84274 17.73542 21748 ft 301 kts 238°
2026-05-07 16:11 37.83097 17.71383 21445 ft 295 kts 238°
2026-05-07 16:11 37.81937 17.69253 21171 ft 293 kts 238°
2026-05-07 16:11 37.80785 17.67138 20893 ft 292 kts 238°
2026-05-07 16:12 37.79637 17.65032 20605 ft 291 kts 238°
2026-05-07 16:12 37.78490 17.62930 20322 ft 290 kts 238°
2026-05-07 16:12 37.77347 17.60837 20036 ft 290 kts 238°
2026-05-07 16:12 37.76201 17.58739 19747 ft 290 kts 237°
2026-05-07 16:13 37.75054 17.56643 19471 ft 290 kts 237°
2026-05-07 16:13 37.73949 17.54514 19187 ft 290 kts 243°
2026-05-07 16:13 37.73168 17.52202 19025 ft 294 kts 251°
2026-05-07 16:13 37.72656 17.49589 19025 ft 321 kts 261°
2026-05-07 16:14 37.72392 17.46674 19006 ft 346 kts 263°
2026-05-07 16:14 37.72136 17.43663 18952 ft 341 kts 263°
2026-05-07 16:14 37.71880 17.40744 18940 ft 327 kts 263°
2026-05-07 16:14 37.71633 17.37965 18928 ft 310 kts 262°
2026-05-07 16:15 37.71393 17.35307 18741 ft 301 kts 262°
2026-05-07 16:15 37.71235 17.33565 18444 ft 301 kts 262°
2026-05-07 16:15 37.70992 17.30923 17914 ft 304 kts 262°
2026-05-07 16:15 37.70748 17.28275 17467 ft 302 kts 262°
2026-05-07 16:16 37.70506 17.25650 17077 ft 299 kts 262°
2026-05-07 16:16 37.70265 17.23046 16654 ft 298 kts 262°
2026-05-07 16:16 37.70025 17.20458 16238 ft 296 kts 262°
2026-05-07 16:16 37.69785 17.17881 15837 ft 295 kts 262°
2026-05-07 16:17 37.69545 17.15317 15433 ft 293 kts 262°
2026-05-07 16:17 37.69310 17.12801 15056 ft 292 kts 261°
2026-05-07 16:17 37.69072 17.10260 14661 ft 290 kts 261°
2026-05-07 16:17 37.68835 17.07738 14273 ft 289 kts 261°
2026-05-07 16:18 37.68598 17.05230 13886 ft 288 kts 261°
2026-05-07 16:18 37.68359 17.02700 13183 ft 295 kts 261°
2026-05-07 16:18 37.68108 17.00063 12211 ft 310 kts 261°
2026-05-07 16:18 37.67844 16.97303 11383 ft 321 kts 261°
2026-05-07 16:19 37.67581 16.94529 11196 ft 320 kts 261°
2026-05-07 16:19 37.67309 16.91682 10962 ft 332 kts 261°
2026-05-07 16:19 37.67030 16.88773 10722 ft 337 kts 260°
2026-05-07 16:19 37.66748 16.85830 10479 ft 337 kts 260°
2026-05-07 16:20 37.66468 16.82900 10235 ft 335 kts 260°
2026-05-07 16:20 37.66188 16.79983 10031 ft 334 kts 260°
2026-05-07 16:20 37.65906 16.77063 9963 ft 335 kts 260°
2026-05-07 16:20 37.65626 16.74158 9925 ft 329 kts 260°
2026-05-07 16:21 37.65356 16.71351 9913 ft 314 kts 260°
2026-05-07 16:21 37.65101 16.68705 9902 ft 295 kts 260°
2026-05-07 16:21 37.64859 16.66205 9905 ft 278 kts 260°
2026-05-07 16:21 37.64633 16.63884 9907 ft 265 kts 259°
2026-05-07 16:22 37.64406 16.61578 9929 ft 270 kts 259°
2026-05-07 16:22 37.64156 16.59097 9933 ft 292 kts 259°
2026-05-07 16:22 37.63906 16.56578 9915 ft 285 kts 259°
2026-05-07 16:22 37.63669 16.54152 9900 ft 271 kts 259°
2026-05-07 16:23 37.63441 16.51834 9908 ft 263 kts 259°
2026-05-07 16:23 37.63205 16.49474 9944 ft 286 kts 259°
2026-05-07 16:23 37.62952 16.46955 9917 ft 288 kts 260°
2026-05-07 16:23 37.62707 16.44480 9904 ft 279 kts 260°
2026-05-07 16:24 37.62474 16.42118 9898 ft 265 kts 260°
2026-05-07 16:24 37.62245 16.39815 9914 ft 270 kts 259°
2026-05-07 16:24 37.61992 16.37335 9925 ft 291 kts 260°
2026-05-07 16:24 37.61740 16.34822 9906 ft 285 kts 260°
2026-05-07 16:25 37.61499 16.32399 9894 ft 271 kts 260°
2026-05-07 16:25 37.61271 16.30115 9898 ft 264 kts 260°
2026-05-07 16:25 37.61029 16.27741 9941 ft 288 kts 260°
2026-05-07 16:25 37.60772 16.25213 9913 ft 289 kts 260°
2026-05-07 16:26 37.60523 16.22737 9895 ft 279 kts 260°
2026-05-07 16:26 37.60285 16.20374 9890 ft 265 kts 260°
2026-05-07 16:26 37.60065 16.18093 9876 ft 260 kts 261°
2026-05-07 16:26 37.59876 16.15827 9827 ft 260 kts 261°
2026-05-07 16:27 37.59691 16.13537 9776 ft 264 kts 261°
2026-05-07 16:27 37.59503 16.11216 9720 ft 268 kts 261°
2026-05-07 16:27 37.59313 16.08881 9650 ft 267 kts 261°
2026-05-07 16:27 37.59123 16.06551 9594 ft 267 kts 261°
2026-05-07 16:28 37.58932 16.04230 9530 ft 266 kts 261°
2026-05-07 16:28 37.58741 16.01912 9471 ft 266 kts 261°
2026-05-07 16:28 37.58549 15.99595 9421 ft 265 kts 261°
2026-05-07 16:28 37.58357 15.97280 9361 ft 265 kts 261°
2026-05-07 16:29 37.58164 15.94968 9310 ft 265 kts 261°
2026-05-07 16:29 37.57971 15.92655 9251 ft 265 kts 261°
2026-05-07 16:29 37.57777 15.90343 9194 ft 265 kts 261°
2026-05-07 16:29 37.57582 15.88026 9137 ft 266 kts 261°
2026-05-07 16:30 37.57400 15.85705 9081 ft 267 kts 264°
2026-05-07 16:30 37.57368 15.83361 9025 ft 268 kts 268°
2026-05-07 16:30 37.57400 15.81037 8968 ft 269 kts 268°
2026-05-07 16:30 37.57441 15.78682 8915 ft 269 kts 268°
2026-05-07 16:31 37.57480 15.76313 8855 ft 270 kts 268°
2026-05-07 16:31 37.57513 15.73948 8790 ft 270 kts 268°
2026-05-07 16:31 37.57542 15.71581 8733 ft 270 kts 268°
2026-05-07 16:31 37.57568 15.69213 8675 ft 270 kts 268°
2026-05-07 16:32 37.57591 15.66847 8621 ft 270 kts 268°
2026-05-07 16:32 37.57613 15.64483 8563 ft 270 kts 268°
2026-05-07 16:32 37.57634 15.62119 8508 ft 269 kts 268°
2026-05-07 16:32 37.57654 15.59761 8449 ft 269 kts 268°
2026-05-07 16:33 37.57673 15.57398 8388 ft 269 kts 268°
2026-05-07 16:33 37.57692 15.55038 8338 ft 269 kts 268°
2026-05-07 16:33 37.57709 15.52682 8275 ft 269 kts 268°
2026-05-07 16:33 37.57727 15.50355 8220 ft 269 kts 268°
2026-05-07 16:34 37.57744 15.47994 8161 ft 269 kts 268°
2026-05-07 16:34 37.57760 15.45632 8104 ft 269 kts 268°
2026-05-07 16:34 37.57776 15.43276 8047 ft 269 kts 268°
2026-05-07 16:34 37.57787 15.40917 7990 ft 269 kts 267°
2026-05-07 16:35 37.57766 15.38564 7932 ft 268 kts 266°
2026-05-07 16:35 37.57734 15.36212 7877 ft 268 kts 266°
2026-05-07 16:35 37.57699 15.33866 7819 ft 268 kts 266°
2026-05-07 16:35 37.57665 15.31514 7764 ft 268 kts 266°
2026-05-07 16:36 37.57633 15.29164 7703 ft 268 kts 266°
2026-05-07 16:36 37.57600 15.26814 7643 ft 268 kts 266°
2026-05-07 16:36 37.57568 15.24463 7592 ft 268 kts 266°
2026-05-07 16:36 37.57536 15.22112 7526 ft 268 kts 266°
2026-05-07 16:37 37.57503 15.19763 7470 ft 268 kts 266°
2026-05-07 16:37 37.57469 15.17424 7460 ft 266 kts 265°
2026-05-07 16:37 37.57438 15.15124 7427 ft 257 kts 265°
2026-05-07 16:37 37.57325 15.12959 7379 ft 246 kts 262°
2026-05-07 16:38 37.57145 15.10832 7344 ft 243 kts 260°
2026-05-07 16:38 37.56954 15.08702 7308 ft 247 kts 260°
2026-05-07 16:38 37.56758 15.06525 7260 ft 252 kts 260°
2026-05-07 16:38 37.56564 15.04308 7215 ft 256 kts 261°
2026-05-07 16:39 37.56369 15.02070 7162 ft 258 kts 261°
2026-05-07 16:39 37.56176 14.99824 7100 ft 258 kts 260°
2026-05-07 16:39 37.55986 14.97608 7047 ft 258 kts 261°
2026-05-07 16:39 37.55795 14.95364 6985 ft 256 kts 259°
2026-05-07 16:40 37.55609 14.93171 6914 ft 247 kts 260°
2026-05-07 16:40 37.55430 14.91066 6875 ft 237 kts 259°
2026-05-07 16:40 37.55255 14.89025 6837 ft 233 kts 260°
2026-05-07 16:40 37.55082 14.87007 6784 ft 230 kts 259°
2026-05-07 16:41 37.54910 14.85015 6742 ft 228 kts 259°
2026-05-07 16:41 37.54741 14.83035 6695 ft 226 kts 259°
2026-05-07 16:41 37.54571 14.81077 6487 ft 225 kts 260°
2026-05-07 16:41 37.54400 14.79113 6233 ft 226 kts 259°
2026-05-07 16:42 37.54227 14.77135 6036 ft 226 kts 260°
2026-05-07 16:42 37.54057 14.75171 6014 ft 226 kts 260°
2026-05-07 16:42 37.53885 14.73198 6020 ft 227 kts 260°
2026-05-07 16:42 37.53712 14.71206 6009 ft 230 kts 260°
2026-05-07 16:43 37.53537 14.69198 5985 ft 229 kts 260°
2026-05-07 16:43 37.53256 14.67267 5720 ft 226 kts 243°
2026-05-07 16:43 37.52282 14.65761 5307 ft 225 kts 210°
2026-05-07 16:43 37.50824 14.65154 5117 ft 221 kts 182°
2026-05-07 16:44 37.49320 14.65217 5035 ft 212 kts 173°
2026-05-07 16:44 37.47864 14.65411 5012 ft 209 kts 172°
2026-05-07 16:44 37.46412 14.65609 5008 ft 211 kts 172°
2026-05-07 16:44 37.44986 14.66057 4992 ft 214 kts 149°
2026-05-07 16:45 37.43920 14.67332 5020 ft 214 kts 122°
2026-05-07 16:45 37.43458 14.69088 5007 ft 213 kts 96°
2026-05-07 16:45 37.43559 14.70949 5019 ft 213 kts 85°
2026-05-07 16:45 37.43773 14.72790 4979 ft 214 kts 82°
2026-05-07 16:46 37.44005 14.74690 4717 ft 222 kts 84°
2026-05-07 16:46 37.44198 14.76610 4421 ft 218 kts 85°
2026-05-07 16:46 37.44358 14.78473 4145 ft 211 kts 86°
2026-05-07 16:46 37.44505 14.80289 3859 ft 206 kts 86°
2026-05-07 16:47 37.44646 14.82035 3601 ft 201 kts 86°
2026-05-07 16:47 37.44787 14.83760 3350 ft 195 kts 86°
2026-05-07 16:47 37.44924 14.85443 3083 ft 191 kts 85°
2026-05-07 16:47 37.45059 14.87081 2841 ft 185 kts 86°
2026-05-07 16:48 37.45188 14.88664 2584 ft 179 kts 85°
2026-05-07 16:48 37.45313 14.90186 2362 ft 171 kts 86°
2026-05-07 16:48 37.45435 14.91672 2140 ft 172 kts 85°
2026-05-07 16:48 37.45561 14.93207 1900 ft 179 kts 85°
2026-05-07 16:49 37.45688 14.94741 1670 ft 173 kts 85°
2026-05-07 16:49 37.45810 14.96212 1453 ft 165 kts 87°
2026-05-07 16:49 37.45922 14.97571 1269 ft 144 kts 84°
2026-05-07 16:49 37.46017 14.98722 1063 ft 124 kts 83°
2026-05-07 16:50 37.46094 14.99801 909 ft 127 kts 84°
2026-05-07 16:50 37.46190 15.00908 796 ft 127 kts 83°
2026-05-07 16:50 37.46264 15.02007 628 ft 124 kts 82°
2026-05-07 16:50 37.46374 15.03066 453 ft 119 kts 79°
2026-05-07 16:51 37.46454 15.04095 296 ft 117 kts 79°
2026-05-07 16:51 37.46546 15.05108 135 ft 120 kts 80°
2026-05-07 16:51 37.46633 15.06121 35 ft 107 kts 82°
2026-05-07 16:51 37.46702 15.06911 35 ft 74 kts 84°
2026-05-07 16:52 37.46745 15.07427 35 ft 48 kts 84°
2026-05-07 16:52 37.46839 15.07746 34 ft 21 kts 53°
2026-05-07 16:52 37.46892 15.07826 32 ft 0 kts 34°
2026-05-07 16:52 37.46922 15.07810 32 ft 13 kts 301°
2026-05-07 16:53 37.46928 15.07639 32 ft 23 kts 264°
2026-05-07 16:53 37.46912 15.07441 31 ft 22 kts 264°
2026-05-07 16:53 37.46897 15.07271 31 ft 22 kts 263°
2026-05-07 16:54 37.46895 15.07248 31 ft 21 kts 264°